COSMOS 1066 DEB

Satellite information

Favourite Embed

Satellite Type and Status

DEBRISIN ORBIT

Key statistics

Satellite COSMOS 1066 DEB at a glance.

Uptime

17108

Days in orbit

Revolutions

≈ 14.3

Per day

Orbit

LEO

Low Earth Orbit

Inclination

81.2

Latest

Satellite identification and parameters

Extended collection of information and parameters for COSMOS 1066 DEB.

Object identification

Identified? True

Debris? True

Object name: COSMOS 1066 DEB

International designator: 1978-121D

Object number (NORAD): 45656

Object ID (CCSDS): 45656

Country: COMMONWEALTH OF INDEPENDENT STATES (CIS)

Current information (Y/N): Y

RCS size: SMALL

Orbital parameters

Period: 100.47 minutes

Inclination: 81.2288 deg

SMA: 7158.997 km

Apoapsis: 804.543 km

Periapsis: 757.182 km

RAAN: 109.3839 deg

Eccentricy: 0.00330786

Argument of periapsis: 357.7846 deg

Mean anomaly: 2.3186 deg

Mean motion: 14.3325824 rev/day

Mean motion (dot): 0.00010174 rev/day2

B* drag term: 0.0036695449 1/REarth

Two-line elements (TLE)

Creation date: Oct. 20, 2025, 10:26 a.m.

Reference frame: TEME

Reference center: EARTH

Epoch: Oct. 20, 2025, 5 a.m. UTC

TLE line 0: 0 COSMOS 1066 DEB

TLE line 1: 1 45656U 78121D 25293.20901701 .00010174 00000-0 36695-2 0 9990

TLE line 2: 2 45656 81.2288 109.3839 0033079 357.7846 2.3186 14.33258240284604

Live tracking on map

Real-time ground track for satellite COSMOS 1066 DEB.

In-orbit conjunctions

A list of the most updated potential collisions computed for object COSMOS 1066 DEB.

Target Orbit TCA Probability of collision Miss distance Type
DMSP 5D-3 F18 DEB SSO 2025-03-11 01:26:19 0.000145014 87.0 (m) DEBRIS
DMSP 5D-2 F13 DEB SSO 2024-10-12 21:59:30 0.000152899 36.0 (m) DEBRIS
FENGYUN 1C DEB SSO 2024-09-26 17:29:53 0.0001018467 976.0 (m) DEBRIS

Associated space launch

Astrophysics (not confirmed) satellite

COSMOS 1066 DEB was lifted into orbit during the mission ‘Vostok 8A92M | Astrofizika’, on board a Vostok 8A92M space rocket.

The launch took place on Dec. 23, 1978, 8:39 a.m. from 43/3 (43L).

For more information about the launch, click the button.

Launch to space Vostok 8A92M | Astrofizika
Vostok 8A92M | Astrofizika

Agency: N/A

Status: Launch Successful

Launch date: Dec. 23, 1978, 8:39 a.m. UTC

Rocket: Vostok 8A92M

Launch pad: 43/3 (43L)

Location: Plesetsk Cosmodrome, Russian Federation

...

Latest news about this satellite

There are no fresh news available about this satellite. Check back as we update our databases every day.


Newsletter sign-up

Weekly statistics, charts and insights to help you stay on top of the space industry.